Location: Pasarilla del Rebollar
(40.6790°N, 5.0062°W)
Time: 11:43:01
(UTC+00:00)

ACS3 Solar Sail - Pass Details

Date: 22 April 2026
Orbit: 894 x 947 km, 97.2° (Epoch: 12 May)

Event Time Altitude Azimuth Distance (km) Brightness Sun altitude
Rises 01:16:32 0° 13° (NNE) 3,551 5.8 -35.5°
Reaches altitude 10° 01:18:58 10° 16° (NNE) 2,613 4.8 -35.4°
Enters shadow 01:23:08 47° 33° (NNE) 1,199 2.5 -35.1°
